Time,TemperatureF,DewpointF,PressureIn,WindDirection,WindDirectionDegrees,WindSpeedMPH,WindSpeedGustMPH,Humidity,HourlyPrecipIn,Conditions,Clouds,dailyrainin,SoftwareType,DateUTC
2013-07-31 00:03:00,66.4,61.4,29.99,North,0,0.0,3.5,84,0.00,OVC,FEW,0.00,WeatherDisplay:10.37,2013-07-31 05:03:00,
2013-07-31 00:08:00,66.4,61.4,29.99,North,0,0.0,0.0,84,0.00,OVC,FEW,0.00,WeatherDisplay:10.37,2013-07-31 05:08:00,
2013-07-31 00:14:00,66.4,61.4,29.99,North,0,0.0,1.2,84,0.00,OVC,FEW,0.00,WeatherDisplay:10.37,2013-07-31 05:14:00,
2013-07-31 00:19:00,66.4,61.4,29.99,NW,315,0.7,3.1,84,0.00,OVC,FEW,0.00,WeatherDisplay:10.37,2013-07-31 05:19:00,
2013-07-31 00:25:00,66.4,61.4,29.99,NW,315,0.0,1.2,84,0.00,OVC,FEW,0.00,WeatherDisplay:10.37,2013-07-31 05:25:00,
2013-07-31 00:31:00,66.2,61.2,29.99,NW,315,0.0,3.5,84,0.00,OVC,FEW,0.00,WeatherDisplay:10.37,2013-07-31 05:31:00,
2013-07-31 00:36:00,66.2,61.2,29.99,NW,315,0.7,3.5,84,0.00,OVC,FEW,0.00,WeatherDisplay:10.37,2013-07-31 05:36:00,
2013-07-31 00:42:00,66.2,61.2,29.99,NW,315,0.0,2.3,84,0.00,OVC,FEW,0.00,WeatherDisplay:10.37,2013-07-31 05:42:00,
2013-07-31 00:47:00,66.2,61.2,29.99,North,0,1.6,3.5,84,0.00,OVC,FEW,0.00,WeatherDisplay:10.37,2013-07-31 05:47:00,
2013-07-31 00:53:00,66.2,61.2,29.99,NW,315,0.7,3.5,84,0.00,OVC,FEW,0.00,WeatherDisplay:10.37,2013-07-31 05:53:00,
2013-07-31 00:59:00,66.0,61.0,29.98,NW,315,0.0,1.2,84,0.00,OVC,FEW,0.00,WeatherDisplay:10.37,2013-07-31 05:59:00,
2013-07-31 01:04:00,66.0,61.0,29.98,North,0,1.6,3.5,84,0.00,OVC,FEW,0.00,WeatherDisplay:10.37,2013-07-31 06:04:00,
2013-07-31 01:10:00,66.0,61.0,29.97,North,0,0.0,1.2,84,0.00,OVC,FEW,0.00,WeatherDisplay:10.37,2013-07-31 06:10:00,
2013-07-31 01:15:00,66.0,61.0,29.98,North,0,0.0,1.2,84,0.00,OVC,FEW,0.00,WeatherDisplay:10.37,2013-07-31 06:15:00,
2013-07-31 01:21:00,66.0,61.0,29.98,NE,45,0.0,2.3,84,0.00,OVC,FEW,0.00,WeatherDisplay:10.37,2013-07-31 06:21:00,
2013-07-31 01:27:00,66.0,61.0,29.97,North,0,0.0,2.3,84,0.00,OVC,FEW,0.00,WeatherDisplay:10.37,2013-07-31 06:27:00,
2013-07-31 01:32:00,66.2,61.2,29.98,NW,315,1.6,3.5,84,0.00,OVC,FEW,0.00,WeatherDisplay:10.37,2013-07-31 06:32:00,
2013-07-31 01:38:00,66.0,61.0,29.98,NW,315,0.7,3.5,84,0.00,OVC,FEW,0.00,WeatherDisplay:10.37,2013-07-31 06:38:00,
2013-07-31 01:43:00,66.0,61.0,29.98,North,0,0.7,2.3,84,0.00,OVC,FEW,0.00,WeatherDisplay:10.37,2013-07-31 06:43:00,
2013-07-31 01:49:00,66.0,61.0,29.98,North,0,0.7,2.3,84,0.00,OVC,FEW,0.00,WeatherDisplay:10.37,2013-07-31 06:49:00,
2013-07-31 01:55:00,66.0,61.0,29.98,NE,45,0.0,1.2,84,0.00,OVC,FEW,0.00,WeatherDisplay:10.37,2013-07-31 06:55:00,
2013-07-31 02:00:00,66.0,61.0,29.98,NW,315,0.0,1.2,84,0.00,OVC,FEW,0.00,WeatherDisplay:10.37,2013-07-31 07:00:00,
2013-07-31 02:06:00,66.0,61.0,29.99,NW,315,0.0,2.3,84,0.00,OVC,FEW,0.00,WeatherDisplay:10.37,2013-07-31 07:06:00,
2013-07-31 02:11:00,65.8,60.9,29.98,North,0,0.0,1.2,84,0.00,OVC,FEW,0.00,WeatherDisplay:10.37,2013-07-31 07:11:00,
2013-07-31 02:17:00,65.8,60.9,29.97,East,90,0.0,1.2,84,0.00,OVC,FEW,0.00,WeatherDisplay:10.37,2013-07-31 07:17:00,
2013-07-31 02:23:00,65.8,60.9,29.97,East,90,0.0,1.2,84,0.00,OVC,FEW,0.00,WeatherDisplay:10.37,2013-07-31 07:23:00,
2013-07-31 02:28:00,65.8,60.9,29.98,NE,45,0.0,1.2,84,0.00,OVC,FEW,0.00,WeatherDisplay:10.37,2013-07-31 07:28:00,
2013-07-31 02:34:00,65.8,60.9,29.98,North,0,0.7,1.2,84,0.00,OVC,FEW,0.00,WeatherDisplay:10.37,2013-07-31 07:34:00,
2013-07-31 02:39:00,65.8,60.9,29.98,NW,315,1.6,3.5,84,0.00,OVC,FEW,0.00,WeatherDisplay:10.37,2013-07-31 07:39:00,
2013-07-31 02:45:00,65.8,60.9,29.97,NW,315,1.6,2.3,84,0.00,OVC,FEW,0.00,WeatherDisplay:10.37,2013-07-31 07:45:00,
2013-07-31 02:51:00,65.7,60.7,29.98,North,0,0.0,3.5,84,0.00,OVC,FEW,0.00,WeatherDisplay:10.37,2013-07-31 07:51:00,
2013-07-31 02:56:00,65.8,60.9,29.98,North,0,1.6,3.5,84,0.00,OVC,FEW,0.00,WeatherDisplay:10.37,2013-07-31 07:56:00,
2013-07-31 03:02:00,65.8,60.9,29.98,NW,315,0.7,3.8,84,0.00,OVC,FEW,0.00,WeatherDisplay:10.37,2013-07-31 08:02:00,
2013-07-31 03:07:00,65.8,60.9,29.97,NW,315,0.0,3.5,84,0.00,OVC,FEW,0.00,WeatherDisplay:10.37,2013-07-31 08:07:00,
2013-07-31 03:13:00,65.8,60.9,29.97,NW,315,0.0,1.6,84,0.00,OVC,FEW,0.00,WeatherDisplay:10.37,2013-07-31 08:13:00,
2013-07-31 03:19:00,65.8,60.9,29.97,North,0,0.7,2.2,84,0.00,OVC,FEW,0.00,WeatherDisplay:10.37,2013-07-31 08:19:00,
2013-07-31 03:24:00,65.8,60.9,29.97,North,0,0.0,2.3,84,0.00,OVC,FEW,0.00,WeatherDisplay:10.37,2013-07-31 08:24:00,
2013-07-31 03:30:00,65.8,60.9,29.97,North,0,1.6,3.5,84,0.00,OVC,FEW,0.00,WeatherDisplay:10.37,2013-07-31 08:30:00,
2013-07-31 03:35:00,65.7,60.7,29.98,North,0,0.0,3.5,84,0.00,OVC,FEW,0.00,WeatherDisplay:10.37,2013-07-31 08:35:00,
2013-07-31 03:41:00,65.8,60.9,29.98,North,0,0.7,1.2,84,0.00,OVC,FEW,0.00,WeatherDisplay:10.37,2013-07-31 08:41:00,
2013-07-31 03:47:00,65.7,60.7,29.98,NW,315,0.7,2.3,84,0.00,OVC,FEW,0.00,WeatherDisplay:10.37,2013-07-31 08:47:00,
2013-07-31 03:52:00,65.8,60.9,29.98,North,0,0.0,3.5,84,0.00,OVC,FEW,0.00,WeatherDisplay:10.37,2013-07-31 08:52:00,
2013-07-31 03:58:00,65.8,60.9,29.98,NW,315,2.2,3.8,84,0.00,OVC,FEW,0.00,WeatherDisplay:10.37,2013-07-31 08:58:00,
2013-07-31 04:03:00,65.7,60.7,29.97,NW,315,2.2,3.5,84,0.00,OVC,FEW,0.00,WeatherDisplay:10.37,2013-07-31 09:03:00,
2013-07-31 04:09:00,65.7,60.7,29.98,NE,45,1.6,5.8,84,0.00,OVC,FEW,0.00,WeatherDisplay:10.37,2013-07-31 09:09:00,
2013-07-31 04:15:00,65.7,60.7,29.98,WNW,292,2.2,5.8,84,0.00,OVC,FEW,0.00,WeatherDisplay:10.37,2013-07-31 09:15:00,
2013-07-31 04:20:00,65.5,60.5,29.98,North,0,1.6,4.6,84,0.00,OVC,FEW,0.00,WeatherDisplay:10.37,2013-07-31 09:20:00,
2013-07-31 04:26:00,65.7,60.7,29.98,NW,315,0.7,3.5,84,0.00,OVC,FEW,0.00,WeatherDisplay:10.37,2013-07-31 09:26:00,
2013-07-31 04:31:00,65.7,60.7,29.98,North,0,0.0,2.3,84,0.00,OVC,FEW,0.00,WeatherDisplay:10.37,2013-07-31 09:31:00,
2013-07-31 04:37:00,65.5,60.5,29.98,NW,315,1.6,3.5,84,0.00,OVC,FEW,0.00,WeatherDisplay:10.37,2013-07-31 09:37:00,
2013-07-31 04:43:00,65.7,60.7,29.98,North,0,1.6,3.8,84,0.00,OVC,FEW,0.00,WeatherDisplay:10.37,2013-07-31 09:43:00,
2013-07-31 04:48:00,65.5,60.5,29.98,North,0,0.7,3.5,84,0.00,OVC,FEW,0.00,WeatherDisplay:10.37,2013-07-31 09:48:00,
2013-07-31 04:54:00,65.5,60.5,29.98,North,0,2.2,5.4,84,0.00,OVC,FEW,0.00,WeatherDisplay:10.37,2013-07-31 09:54:00,
2013-07-31 04:59:00,65.3,60.3,29.98,North,0,2.2,5.8,84,0.00,OVC,FEW,0.00,WeatherDisplay:10.37,2013-07-31 09:59:00,
2013-07-31 05:05:00,65.5,60.5,29.99,West,270,0.0,4.6,84,0.00,OVC,FEW,0.00,WeatherDisplay:10.37,2013-07-31 10:05:00,
2013-07-31 05:11:00,65.5,60.5,29.99,NW,315,0.7,3.5,84,0.00,OVC,FEW,0.00,WeatherDisplay:10.37,2013-07-31 10:11:00,
2013-07-31 05:16:00,65.5,60.5,29.99,North,0,2.2,5.4,84,0.00,OVC,FEW,0.00,WeatherDisplay:10.37,2013-07-31 10:16:00,
2013-07-31 05:22:00,65.3,60.3,29.99,NNW,338,1.6,4.5,84,0.00,OVC,FEW,0.00,WeatherDisplay:10.37,2013-07-31 10:22:00,
2013-07-31 05:27:00,65.3,60.3,29.99,NW,315,0.7,4.6,84,0.00,OVC,FEW,0.00,WeatherDisplay:10.37,2013-07-31 10:27:00,
2013-07-31 05:33:00,65.3,60.3,29.99,NW,315,1.6,4.6,84,0.00,OVC,FEW,0.00,WeatherDisplay:10.37,2013-07-31 10:33:00,
2013-07-31 05:39:00,65.3,60.3,29.99,NW,315,0.7,3.5,84,0.00,OVC,FEW,0.00,WeatherDisplay:10.37,2013-07-31 10:39:00,
2013-07-31 05:44:00,65.3,60.3,29.99,NW,315,0.7,2.3,84,0.00,OVC,FEW,0.00,WeatherDisplay:10.37,2013-07-31 10:44:00,
2013-07-31 05:50:00,65.3,60.3,29.99,North,0,0.0,3.5,84,0.00,OVC,FEW,0.00,WeatherDisplay:10.37,2013-07-31 10:50:00,
2013-07-31 05:55:00,65.3,60.3,29.99,North,0,0.0,3.5,84,0.00,OVC,FEW,0.00,WeatherDisplay:10.37,2013-07-31 10:55:00,
2013-07-31 06:01:00,65.5,60.5,29.99,North,0,0.7,3.5,84,0.00,OVC,FEW,0.00,WeatherDisplay:10.37,2013-07-31 11:01:00,
2013-07-31 06:07:00,65.5,60.5,30.00,SE,135,1.6,3.1,84,0.00,OVC,FEW,0.00,WeatherDisplay:10.37,2013-07-31 11:07:00,
2013-07-31 06:12:00,65.5,60.5,30.00,NW,315,0.0,3.5,84,0.00,OVC,FEW,0.00,WeatherDisplay:10.37,2013-07-31 11:12:00,
2013-07-31 06:18:00,65.5,60.5,30.00,NW,315,2.2,3.5,84,0.00,OVC,FEW,0.00,WeatherDisplay:10.37,2013-07-31 11:18:00,
2013-07-31 06:23:00,65.5,60.5,30.00,NW,315,0.7,3.5,84,0.00,OVC,FEW,0.00,WeatherDisplay:10.37,2013-07-31 11:23:00,
2013-07-31 06:29:00,65.5,60.5,29.99,NW,315,0.7,3.5,84,0.00,OVC,FEW,0.00,WeatherDisplay:10.37,2013-07-31 11:29:00,
2013-07-31 06:35:00,65.3,60.3,29.99,NW,315,0.0,3.5,84,0.00,OVC,FEW,0.00,WeatherDisplay:10.37,2013-07-31 11:35:00,
2013-07-31 06:40:00,65.5,60.5,30.00,West,270,0.7,2.3,84,0.00,OVC,FEW,0.00,WeatherDisplay:10.37,2013-07-31 11:40:00,
2013-07-31 06:46:00,65.3,60.3,30.00,North,0,2.2,3.5,84,0.00,OVC,FEW,0.00,WeatherDisplay:10.37,2013-07-31 11:46:00,
2013-07-31 06:52:00,65.5,60.5,30.00,NW,315,1.6,3.8,84,0.00,OVC,FEW,0.00,WeatherDisplay:10.37,2013-07-31 11:52:00,
2013-07-31 06:57:00,65.3,60.3,30.00,NW,315,1.6,4.6,84,0.00,OVC,FEW,0.00,WeatherDisplay:10.37,2013-07-31 11:57:00,
2013-07-31 07:03:00,65.3,60.3,30.00,North,0,1.6,5.8,84,0.00,OVC,FEW,0.00,WeatherDisplay:10.37,2013-07-31 12:03:00,
2013-07-31 07:08:00,65.3,60.3,30.00,North,0,2.2,6.0,84,0.00,OVC,FEW,0.00,WeatherDisplay:10.37,2013-07-31 12:08:00,
2013-07-31 07:14:00,65.3,60.3,30.00,West,270,2.2,5.8,84,0.00,OVC,FEW,0.00,WeatherDisplay:10.37,2013-07-31 12:14:00,
2013-07-31 07:19:00,65.3,60.3,30.00,North,0,2.2,4.6,84,0.00,OVC,FEW,0.00,WeatherDisplay:10.37,2013-07-31 12:19:00,
2013-07-31 07:25:00,65.5,60.5,30.00,North,0,2.2,6.9,84,0.00,OVC,FEW,0.00,WeatherDisplay:10.37,2013-07-31 12:25:00,
2013-07-31 07:31:00,65.5,60.5,30.00,NW,315,1.6,4.6,84,0.00,OVC,FEW,0.00,WeatherDisplay:10.37,2013-07-31 12:31:00,
2013-07-31 07:36:00,65.5,60.5,30.00,NW,315,2.2,3.8,84,0.00,OVC,FEW,0.00,WeatherDisplay:10.37,2013-07-31 12:36:00,
2013-07-31 07:42:00,65.5,60.5,29.99,NW,315,2.2,3.5,84,0.00,OVC,FEW,0.00,WeatherDisplay:10.37,2013-07-31 12:42:00,
2013-07-31 07:47:00,65.7,60.7,30.00,North,0,0.7,2.3,84,0.00,OVC,FEW,0.00,WeatherDisplay:10.37,2013-07-31 12:47:00,
2013-07-31 07:53:00,65.8,60.9,30.00,NW,315,0.0,4.6,84,0.00,OVC,FEW,0.00,WeatherDisplay:10.37,2013-07-31 12:53:00,
2013-07-31 07:59:00,65.7,60.7,30.00,NE,45,2.2,4.6,84,0.00,OVC,FEW,0.00,WeatherDisplay:10.37,2013-07-31 12:59:00,
2013-07-31 08:04:00,65.8,60.9,30.00,North,0,2.2,3.5,84,0.00,OVC,FEW,0.00,WeatherDisplay:10.37,2013-07-31 13:04:00,
2013-07-31 08:10:00,66.0,61.0,30.00,North,0,0.0,3.5,84,0.00,OVC,FEW,0.00,WeatherDisplay:10.37,2013-07-31 13:10:00,
2013-07-31 08:15:00,66.0,61.0,30.00,North,0,2.2,3.1,84,0.00,OVC,FEW,0.00,WeatherDisplay:10.37,2013-07-31 13:15:00,
2013-07-31 08:21:00,66.0,61.0,30.00,NW,315,2.2,3.5,84,0.00,OVC,FEW,0.00,WeatherDisplay:10.37,2013-07-31 13:21:00,
2013-07-31 08:27:00,66.2,61.2,30.00,North,0,1.6,3.8,84,0.00,OVC,FEW,0.00,WeatherDisplay:10.37,2013-07-31 13:27:00,
2013-07-31 08:32:00,66.2,61.2,30.00,NE,45,0.0,3.5,84,0.00,OVC,FEW,0.00,WeatherDisplay:10.37,2013-07-31 13:32:00,
2013-07-31 08:38:00,66.4,61.4,30.00,North,0,2.2,6.0,84,0.00,OVC,FEW,0.00,WeatherDisplay:10.37,2013-07-31 13:38:00,
2013-07-31 08:43:00,66.4,61.4,30.00,North,0,0.7,5.8,84,0.00,OVC,FEW,0.00,WeatherDisplay:10.37,2013-07-31 13:43:00,
2013-07-31 08:49:00,66.6,61.6,30.00,NE,45,2.2,4.6,84,0.00,OVC,FEW,0.00,WeatherDisplay:10.37,2013-07-31 13:49:00,
2013-07-31 08:55:00,66.6,61.6,30.00,NW,315,1.6,5.8,84,0.00,OVC,FEW,0.00,WeatherDisplay:10.37,2013-07-31 13:55:00,
2013-07-31 09:00:00,66.7,61.7,30.00,NW,315,0.7,2.3,84,0.00,OVC,FEW,0.00,WeatherDisplay:10.37,2013-07-31 14:00:00,
2013-07-31 09:06:00,67.3,62.3,30.00,NW,315,0.0,2.3,84,0.00,OVC,FEW,0.00,WeatherDisplay:10.37,2013-07-31 14:06:00,
2013-07-31 09:12:00,67.5,62.5,30.00,NW,315,0.7,3.5,84,0.00,OVC,FEW,0.00,WeatherDisplay:10.37,2013-07-31 14:12:00,
2013-07-31 09:17:00,67.5,62.5,30.00,North,0,1.6,4.6,84,0.00,OVC,FEW,0.00,WeatherDisplay:10.37,2013-07-31 14:17:00,
2013-07-31 09:23:00,67.6,62.6,30.01,NW,315,1.6,4.6,84,0.00,OVC,FEW,0.00,WeatherDisplay:10.37,2013-07-31 14:23:00,
2013-07-31 09:28:00,67.8,62.8,30.01,NW,315,0.7,2.3,84,0.00,OVC,FEW,0.00,WeatherDisplay:10.37,2013-07-31 14:28:00,
2013-07-31 09:34:00,67.8,62.8,30.00,North,0,1.6,3.5,84,0.00,OVC,FEW,0.00,WeatherDisplay:10.37,2013-07-31 14:34:00,
2013-07-31 09:39:00,68.0,63.0,30.01,NW,315,1.6,3.5,84,0.00,OVC,FEW,0.00,WeatherDisplay:10.37,2013-07-31 14:39:00,
2013-07-31 09:45:00,68.4,63.3,30.00,NW,315,2.2,5.8,84,0.00,OVC,FEW,0.00,WeatherDisplay:10.37,2013-07-31 14:45:00,
2013-07-31 09:51:00,68.7,63.7,30.01,North,0,0.7,3.5,84,0.00,OVC,FEW,0.00,WeatherDisplay:10.37,2013-07-31 14:51:00,
2013-07-31 09:56:00,68.9,63.9,30.00,North,0,0.7,3.5,84,0.00,OVC,FEW,0.00,WeatherDisplay:10.37,2013-07-31 14:56:00,
2013-07-31 10:02:00,69.3,64.2,30.01,North,0,1.6,3.5,84,0.00,OVC,FEW,0.00,WeatherDisplay:10.37,2013-07-31 15:02:00,
2013-07-31 10:07:00,69.1,64.0,30.01,NW,315,3.1,8.1,84,0.00,OVC,FEW,0.00,WeatherDisplay:10.37,2013-07-31 15:07:00,
2013-07-31 10:13:00,69.4,64.4,30.00,North,0,2.2,4.6,84,0.00,OVC,FEW,0.00,WeatherDisplay:10.37,2013-07-31 15:13:00,
2013-07-31 10:19:00,69.6,64.6,30.01,North,0,2.2,5.8,84,0.00,OVC,FEW,0.00,WeatherDisplay:10.37,2013-07-31 15:19:00,
2013-07-31 10:24:00,70.7,65.6,30.00,NW,315,0.7,4.6,84,0.00,OVC,FEW,0.00,WeatherDisplay:10.37,2013-07-31 15:24:00,
2013-07-31 10:30:00,71.4,66.3,30.00,NW,315,1.6,5.8,84,0.00,OVC,FEW,0.00,WeatherDisplay:10.37,2013-07-31 15:30:00,
2013-07-31 10:35:00,71.8,66.7,30.00,SW,225,2.2,5.8,84,0.00,OVC,FEW,0.00,WeatherDisplay:10.37,2013-07-31 15:35:00,
2013-07-31 10:41:00,72.0,66.9,30.00,North,0,2.2,5.8,84,0.00,OVC,FEW,0.00,WeatherDisplay:10.37,2013-07-31 15:41:00,
2013-07-31 10:47:00,72.1,67.0,30.00,North,0,2.2,4.6,84,0.00,OVC,FEW,0.00,WeatherDisplay:10.37,2013-07-31 15:47:00,
2013-07-31 10:52:00,72.1,67.0,30.00,NW,315,2.2,5.8,84,0.00,OVC,FEW,0.00,WeatherDisplay:10.37,2013-07-31 15:52:00,
2013-07-31 10:58:00,72.1,67.0,30.01,West,270,3.1,6.9,84,0.00,OVC,FEW,0.00,WeatherDisplay:10.37,2013-07-31 15:58:00,
2013-07-31 11:03:00,72.1,67.0,30.00,NW,315,2.2,6.9,84,0.00,OVC,FEW,0.00,WeatherDisplay:10.37,2013-07-31 16:03:00,
2013-07-31 11:09:00,72.7,67.6,30.00,North,0,2.2,3.5,84,0.00,OVC,FEW,0.00,WeatherDisplay:10.37,2013-07-31 16:09:00,
2013-07-31 11:15:00,74.3,69.1,30.00,NW,315,1.6,5.8,84,0.00,OVC,FEW,0.00,WeatherDisplay:10.37,2013-07-31 16:15:00,
2013-07-31 11:20:00,74.3,69.1,30.00,North,0,2.2,5.8,84,0.00,OVC,FEW,0.00,WeatherDisplay:10.37,2013-07-31 16:20:00,
2013-07-31 11:26:00,74.3,68.4,30.00,North,0,2.2,5.8,82,0.00,OVC,FEW,0.00,WeatherDisplay:10.37,2013-07-31 16:26:00,
2013-07-31 11:31:00,73.4,68.3,30.01,NW,315,0.7,5.8,84,0.00,OVC,FEW,0.00,WeatherDisplay:10.37,2013-07-31 16:31:00,
2013-07-31 11:37:00,73.0,67.9,30.01,NW,315,3.8,6.9,84,0.00,OVC,FEW,0.00,WeatherDisplay:10.37,2013-07-31 16:37:00,
2013-07-31 11:43:00,73.0,67.9,30.01,West,270,1.6,3.5,84,0.00,OVC,FEW,0.00,WeatherDisplay:10.37,2013-07-31 16:43:00,
2013-07-31 11:48:00,73.0,67.9,30.00,NW,315,3.1,5.8,84,0.00,OVC,FEW,0.00,WeatherDisplay:10.37,2013-07-31 16:48:00,
2013-07-31 11:54:00,72.9,67.7,30.00,NW,315,1.6,5.8,84,0.00,OVC,FEW,0.00,WeatherDisplay:10.37,2013-07-31 16:54:00,
2013-07-31 11:59:00,73.6,68.4,30.01,NE,45,1.6,5.8,84,0.00,OVC,FEW,0.00,WeatherDisplay:10.37,2013-07-31 16:59:00,
2013-07-31 12:05:00,74.1,69.0,30.00,North,0,1.6,6.9,84,0.00,OVC,FEW,0.00,WeatherDisplay:10.37,2013-07-31 17:05:00,
2013-07-31 12:11:00,74.5,69.0,30.00,East,90,0.7,3.5,83,0.00,OVC,FEW,0.00,WeatherDisplay:10.37,2013-07-31 17:11:00,
2013-07-31 12:16:00,74.5,69.3,30.00,West,270,0.7,5.8,84,0.00,OVC,FEW,0.00,WeatherDisplay:10.37,2013-07-31 17:16:00,
2013-07-31 12:22:00,75.2,69.3,30.00,NW,315,3.1,5.8,82,0.00,OVC,FEW,0.00,WeatherDisplay:10.37,2013-07-31 17:22:00,
2013-07-31 12:27:00,76.1,69.1,30.00,North,0,1.6,5.8,79,0.00,OVC,FEW,0.00,WeatherDisplay:10.37,2013-07-31 17:27:00,
2013-07-31 12:33:00,77.2,70.2,30.00,NE,45,0.0,3.5,79,0.00,OVC,FEW,0.00,WeatherDisplay:10.37,2013-07-31 17:33:00,
2013-07-31 12:39:00,75.7,68.0,30.00,North,0,3.8,8.1,77,0.00,OVC,FEW,0.00,WeatherDisplay:10.37,2013-07-31 17:39:00,
2013-07-31 12:44:00,75.6,69.0,30.00,NW,315,2.2,8.1,80,0.00,OVC,FEW,0.00,WeatherDisplay:10.37,2013-07-31 17:44:00,
2013-07-31 12:50:00,77.0,69.2,30.00,NE,45,1.6,1.6,77,0.00,OVC,FEW,0.00,WeatherDisplay:10.37,2013-07-31 17:50:00,
2013-07-31 12:55:00,76.8,69.1,29.99,South,180,1.6,3.5,77,0.00,OVC,FEW,0.00,WeatherDisplay:10.37,2013-07-31 17:55:00,
2013-07-31 13:02:00,75.4,68.8,29.99,NW,315,1.6,5.8,80,0.00,OVC,FEW,0.00,WeatherDisplay:10.37,2013-07-31 18:02:00,
2013-07-31 13:07:00,74.8,68.3,29.99,North,0,2.2,8.1,80,0.00,OVC,FEW,0.00,WeatherDisplay:10.37,2013-07-31 18:07:00,
2013-07-31 13:13:00,76.5,69.5,29.99,North,0,2.2,5.8,79,0.00,OVC,FEW,0.00,WeatherDisplay:10.37,2013-07-31 18:13:00,
2013-07-31 13:19:00,77.2,69.0,29.99,NW,315,2.2,5.8,76,0.00,OVC,FEW,0.00,WeatherDisplay:10.37,2013-07-31 18:19:00,
2013-07-31 13:24:00,77.4,69.6,29.99,West,270,0.0,4.6,77,0.00,OVC,FEW,0.00,WeatherDisplay:10.37,2013-07-31 18:24:00,
2013-07-31 13:30:00,78.3,69.3,29.98,NW,315,0.0,3.5,74,0.00,OVC,FEW,0.00,WeatherDisplay:10.37,2013-07-31 18:30:00,
2013-07-31 13:35:00,78.8,69.0,29.98,NW,315,0.7,4.6,72,0.00,OVC,FEW,0.00,WeatherDisplay:10.37,2013-07-31 18:35:00,
2013-07-31 13:41:00,79.0,67.9,29.98,NW,315,2.2,5.8,69,0.00,OVC,FEW,0.00,WeatherDisplay:10.37,2013-07-31 18:41:00,
2013-07-31 13:47:00,78.6,68.8,29.98,NE,45,0.0,2.3,72,0.00,OVC,FEW,0.00,WeatherDisplay:10.37,2013-07-31 18:47:00,
2013-07-31 13:52:00,77.7,68.4,29.98,ENE,68,2.2,5.8,73,0.00,OVC,FEW,0.00,WeatherDisplay:10.37,2013-07-31 18:52:00,
2013-07-31 13:58:00,78.4,70.2,29.98,North,0,0.7,4.6,76,0.00,OVC,FEW,0.00,WeatherDisplay:10.37,2013-07-31 18:58:00,
2013-07-31 14:03:00,79.0,69.2,29.99,SW,225,0.0,5.8,72,0.00,OVC,FEW,0.00,WeatherDisplay:10.37,2013-07-31 19:03:00,
2013-07-31 14:09:00,78.1,68.3,29.98,West,270,1.6,4.6,72,0.00,OVC,FEW,0.00,WeatherDisplay:10.37,2013-07-31 19:09:00,
2013-07-31 14:15:00,77.4,68.0,29.98,North,0,1.6,4.6,73,0.00,OVC,FEW,0.00,WeatherDisplay:10.37,2013-07-31 19:15:00,
2013-07-31 14:20:00,77.2,68.6,29.98,North,0,0.7,6.9,75,0.00,OVC,FEW,0.00,WeatherDisplay:10.37,2013-07-31 19:20:00,
2013-07-31 14:26:00,77.5,68.2,29.98,NW,315,3.1,5.8,73,0.00,OVC,FEW,0.00,WeatherDisplay:10.37,2013-07-31 19:26:00,
2013-07-31 14:31:00,77.4,68.4,29.98,West,270,1.6,4.6,74,0.00,OVC,FEW,0.00,WeatherDisplay:10.37,2013-07-31 19:31:00,
2013-07-31 14:37:00,77.5,68.2,29.99,North,0,3.8,7.6,73,0.00,OVC,FEW,0.00,WeatherDisplay:10.37,2013-07-31 19:37:00,
2013-07-31 14:43:00,78.1,69.5,29.98,North,0,3.8,8.1,75,0.00,OVC,FEW,0.00,WeatherDisplay:10.37,2013-07-31 19:43:00,
2013-07-31 14:48:00,78.4,68.7,29.99,West,270,1.6,5.8,72,0.00,OVC,FEW,0.00,WeatherDisplay:10.37,2013-07-31 19:48:00,
2013-07-31 14:54:00,78.6,68.8,29.98,West,270,0.7,6.9,72,0.00,OVC,FEW,0.00,WeatherDisplay:10.37,2013-07-31 19:54:00,
2013-07-31 14:59:00,79.7,68.6,29.98,SW,225,1.6,5.8,69,0.00,OVC,FEW,0.00,WeatherDisplay:10.37,2013-07-31 19:59:00,
2013-07-31 15:05:00,79.5,68.5,29.98,North,0,0.7,5.8,69,0.00,OVC,FEW,0.00,WeatherDisplay:10.37,2013-07-31 20:05:00,
2013-07-31 15:11:00,79.9,68.4,29.98,North,0,1.6,3.5,68,0.00,OVC,FEW,0.00,WeatherDisplay:10.37,2013-07-31 20:11:00,
2013-07-31 15:16:00,81.3,69.7,29.97,North,0,0.7,3.5,68,0.00,OVC,FEW,0.00,WeatherDisplay:10.37,2013-07-31 20:16:00,
2013-07-31 15:22:00,82.4,68.5,29.97,NW,315,0.7,3.5,63,0.00,OVC,FEW,0.00,WeatherDisplay:10.37,2013-07-31 20:22:00,
2013-07-31 15:27:00,82.4,69.9,29.97,East,90,0.0,3.5,66,0.00,OVC,FEW,0.00,WeatherDisplay:10.37,2013-07-31 20:27:00,
2013-07-31 15:33:00,83.1,71.0,29.97,SW,225,0.0,1.2,67,0.00,OVC,FEW,0.00,WeatherDisplay:10.37,2013-07-31 20:33:00,
2013-07-31 15:39:00,84.6,69.1,29.97,NW,315,1.6,4.6,60,0.00,OVC,FEW,0.00,WeatherDisplay:10.37,2013-07-31 20:39:00,
2013-07-31 15:44:00,85.1,70.6,29.97,West,270,0.0,4.6,62,0.00,OVC,FEW,0.00,WeatherDisplay:10.37,2013-07-31 20:44:00,
2013-07-31 15:50:00,85.2,70.7,29.97,North,0,0.0,3.5,62,0.00,OVC,FEW,0.00,WeatherDisplay:10.37,2013-07-31 20:50:00,
2013-07-31 15:55:00,86.4,70.3,29.97,NW,315,0.0,2.3,59,0.00,OVC,FEW,0.00,WeatherDisplay:10.37,2013-07-31 20:55:00,
2013-07-31 16:01:00,85.3,69.8,29.97,NW,315,0.0,3.5,60,0.00,OVC,FEW,0.00,WeatherDisplay:10.37,2013-07-31 21:01:00,
2013-07-31 16:07:00,83.1,68.7,29.96,SW,225,0.0,1.2,62,0.00,OVC,FEW,0.00,WeatherDisplay:10.37,2013-07-31 21:07:00,
2013-07-31 16:12:00,82.4,68.5,29.96,NW,315,1.6,4.6,63,0.00,OVC,FEW,0.00,WeatherDisplay:10.37,2013-07-31 21:12:00,
2013-07-31 16:18:00,82.6,69.6,29.96,SW,225,0.7,4.6,65,0.00,OVC,FEW,0.00,WeatherDisplay:10.37,2013-07-31 21:18:00,
2013-07-31 16:23:00,84.4,70.4,29.96,North,0,0.0,3.5,63,0.00,OVC,FEW,0.00,WeatherDisplay:10.37,2013-07-31 21:23:00,
2013-07-31 16:29:00,84.4,70.4,29.96,SE,135,0.0,3.5,63,0.00,OVC,FEW,0.00,WeatherDisplay:10.37,2013-07-31 21:29:00,
2013-07-31 16:35:00,83.1,69.2,29.96,West,270,0.0,3.5,63,0.00,OVC,FEW,0.00,WeatherDisplay:10.37,2013-07-31 21:35:00,
2013-07-31 16:40:00,81.9,68.5,29.95,North,0,0.0,3.5,64,0.00,OVC,FEW,0.00,WeatherDisplay:10.37,2013-07-31 21:40:00,
2013-07-31 16:46:00,81.7,68.8,29.95,WNW,292,1.6,3.5,65,0.00,OVC,FEW,0.00,WeatherDisplay:10.37,2013-07-31 21:46:00,
2013-07-31 16:51:00,81.3,69.7,29.95,SW,225,0.7,3.5,68,0.00,OVC,FEW,0.00,WeatherDisplay:10.37,2013-07-31 21:51:00,
2013-07-31 16:57:00,81.7,67.9,29.95,NW,315,0.7,2.3,63,0.00,OVC,FEW,0.00,WeatherDisplay:10.37,2013-07-31 21:57:00,
2013-07-31 17:03:00,81.7,67.4,29.95,North,0,2.2,5.8,62,0.00,OVC,FEW,0.00,WeatherDisplay:10.37,2013-07-31 22:03:00,
2013-07-31 17:08:00,81.9,68.5,29.95,North,0,0.7,2.3,64,0.00,OVC,FEW,0.00,WeatherDisplay:10.37,2013-07-31 22:08:00,
2013-07-31 17:14:00,81.9,68.5,29.95,West,270,0.7,3.5,64,0.00,OVC,FEW,0.00,WeatherDisplay:10.37,2013-07-31 22:14:00,
2013-07-31 17:19:00,81.7,68.8,29.95,South,180,0.7,2.3,65,0.00,OVC,FEW,0.00,WeatherDisplay:10.37,2013-07-31 22:19:00,
2013-07-31 17:25:00,81.3,68.4,29.95,NW,315,0.7,3.5,65,0.00,OVC,FEW,0.00,WeatherDisplay:10.37,2013-07-31 22:25:00,
2013-07-31 17:31:00,81.0,67.6,29.94,NW,315,2.2,4.6,64,0.00,OVC,FEW,0.00,WeatherDisplay:10.37,2013-07-31 22:31:00,
2013-07-31 17:36:00,81.0,69.0,29.94,West,270,0.0,1.2,67,0.00,OVC,FEW,0.00,WeatherDisplay:10.37,2013-07-31 22:36:00,
2013-07-31 17:42:00,81.1,67.8,29.94,NW,315,0.7,4.6,64,0.00,OVC,FEW,0.00,WeatherDisplay:10.37,2013-07-31 22:42:00,
2013-07-31 17:47:00,81.5,68.1,29.94,SW,225,3.1,8.1,64,0.00,OVC,FEW,0.00,WeatherDisplay:10.37,2013-07-31 22:47:00,
2013-07-31 17:53:00,81.0,67.2,29.93,NW,315,0.7,3.5,63,0.00,OVC,FEW,0.00,WeatherDisplay:10.37,2013-07-31 22:53:00,
2013-07-31 17:59:00,80.8,67.0,29.93,NW,315,1.6,5.8,63,0.00,OVC,FEW,0.00,WeatherDisplay:10.37,2013-07-31 22:59:00,
2013-07-31 18:04:00,80.6,66.8,29.93,North,0,2.2,5.8,63,0.00,OVC,FEW,0.00,WeatherDisplay:10.37,2013-07-31 23:04:00,
2013-07-31 18:10:00,80.4,67.1,29.93,NW,315,1.6,4.5,64,0.00,OVC,FEW,0.00,WeatherDisplay:10.37,2013-07-31 23:10:00,
2013-07-31 18:15:00,80.1,67.2,29.93,North,0,0.7,4.6,65,0.00,OVC,FEW,0.00,WeatherDisplay:10.37,2013-07-31 23:15:00,
2013-07-31 18:21:00,79.9,67.9,29.93,NW,315,0.7,3.5,67,0.00,OVC,FEW,0.00,WeatherDisplay:10.37,2013-07-31 23:21:00,
2013-07-31 18:27:00,79.9,67.5,29.93,NW,315,0.0,3.5,66,0.00,OVC,FEW,0.00,WeatherDisplay:10.37,2013-07-31 23:27:00,
2013-07-31 18:32:00,79.9,67.9,29.93,NW,315,0.0,1.2,67,0.00,OVC,FEW,0.00,WeatherDisplay:10.37,2013-07-31 23:32:00,
2013-07-31 18:38:00,79.5,67.6,29.93,North,0,0.7,3.5,67,0.00,OVC,FEW,0.00,WeatherDisplay:10.37,2013-07-31 23:38:00,
2013-07-31 18:43:00,79.5,67.6,29.93,SW,225,0.0,3.5,67,0.00,OVC,FEW,0.00,WeatherDisplay:10.37,2013-07-31 23:43:00,
2013-07-31 18:49:00,79.2,67.7,29.93,SW,225,0.0,2.3,68,0.00,OVC,FEW,0.00,WeatherDisplay:10.37,2013-07-31 23:49:00,
2013-07-31 18:55:00,79.7,68.2,29.93,South,180,0.7,3.5,68,0.00,OVC,FEW,0.00,WeatherDisplay:10.37,2013-07-31 23:55:00,
2013-07-31 19:00:00,79.3,67.9,29.92,NE,45,0.0,1.2,68,0.00,OVC,FEW,0.00,WeatherDisplay:10.37,2013-08-01 00:00:00,
2013-07-31 19:07:00,78.4,67.4,29.93,NW,315,0.0,2.3,69,0.00,OVC,FEW,0.00,WeatherDisplay:10.37,2013-08-01 00:07:00,
2013-07-31 19:12:00,78.4,57.7,30.21,SE,135,0.0,2.3,49,0.00,OVC,FEW,0.00,WeatherDisplay:10.37,2013-08-01 00:12:00,
2013-07-31 19:18:00,78.4,67.8,29.93,WNW,292,1.6,3.1,70,0.06,RA,FEW,0.06,WeatherDisplay:10.37,2013-08-01 00:18:00,
2013-07-31 19:23:00,78.3,67.7,29.93,NW,315,0.7,3.5,70,0.06,RA,FEW,0.06,WeatherDisplay:10.37,2013-08-01 00:23:00,
2013-07-31 19:29:00,78.1,67.9,29.93,NW,315,1.6,3.5,71,0.06,OVC,FEW,0.06,WeatherDisplay:10.37,2013-08-01 00:29:00,
2013-07-31 19:35:00,78.1,67.9,29.93,NW,315,0.0,4.6,71,0.06,OVC,FEW,0.06,WeatherDisplay:10.37,2013-08-01 00:35:00,
2013-07-31 19:40:00,78.1,67.9,29.93,NW,315,2.2,4.6,71,0.06,OVC,FEW,0.06,WeatherDisplay:10.37,2013-08-01 00:40:00,
2013-07-31 19:46:00,78.1,68.3,29.93,NW,315,1.6,4.6,72,0.06,OVC,FEW,0.06,WeatherDisplay:10.37,2013-08-01 00:46:00,
2013-07-31 19:51:00,78.1,68.3,29.93,NW,315,0.0,4.6,72,0.06,OVC,FEW,0.06,WeatherDisplay:10.37,2013-08-01 00:51:00,
2013-07-31 19:57:00,77.5,68.2,29.93,NW,315,0.7,3.5,73,0.06,OVC,FEW,0.06,WeatherDisplay:10.37,2013-08-01 00:57:00,
2013-07-31 20:03:00,77.4,68.4,29.93,NW,315,0.0,1.2,74,0.06,OVC,FEW,0.06,WeatherDisplay:10.37,2013-08-01 01:03:00,
2013-07-31 20:08:00,77.0,68.1,29.93,NW,315,0.0,1.2,74,0.06,OVC,FEW,0.06,WeatherDisplay:10.37,2013-08-01 01:08:00,
2013-07-31 20:14:00,76.5,67.9,29.93,NE,45,0.0,1.2,75,0.06,OVC,FEW,0.06,WeatherDisplay:10.37,2013-08-01 01:14:00,
2013-07-31 20:19:00,75.9,67.8,29.93,NW,315,0.0,1.2,76,0.00,OVC,FEW,0.06,WeatherDisplay:10.37,2013-08-01 01:19:00,
2013-07-31 20:25:00,75.9,68.2,29.93,West,270,0.0,1.2,77,0.00,OVC,FEW,0.06,WeatherDisplay:10.37,2013-08-01 01:25:00,
2013-07-31 20:31:00,75.6,68.6,29.93,NW,315,0.0,3.1,79,0.00,OVC,FEW,0.06,WeatherDisplay:10.37,2013-08-01 01:31:00,
2013-07-31 20:36:00,75.2,68.2,29.93,NW,315,0.0,3.5,79,0.00,OVC,FEW,0.06,WeatherDisplay:10.37,2013-08-01 01:36:00,
2013-07-31 20:42:00,75.0,68.1,29.93,NW,315,0.0,1.2,79,0.00,OVC,FEW,0.06,WeatherDisplay:10.37,2013-08-01 01:42:00,
2013-07-31 20:47:00,74.7,68.1,29.93,SW,225,0.0,2.3,80,0.00,OVC,FEW,0.06,WeatherDisplay:10.37,2013-08-01 01:47:00,
2013-07-31 20:53:00,74.3,68.1,29.94,SW,225,0.0,0.0,81,0.00,OVC,FEW,0.06,WeatherDisplay:10.37,2013-08-01 01:53:00,
2013-07-31 20:59:00,74.1,67.9,29.94,SW,225,0.0,0.0,81,0.00,OVC,FEW,0.06,WeatherDisplay:10.37,2013-08-01 01:59:00,
2013-07-31 21:04:00,73.8,67.9,29.94,SW,225,0.0,0.0,82,0.00,OVC,FEW,0.06,WeatherDisplay:10.37,2013-08-01 02:04:00,
2013-07-31 21:10:00,73.4,67.9,29.94,SW,225,0.0,0.0,83,0.00,OVC,FEW,0.06,WeatherDisplay:10.37,2013-08-01 02:10:00,
2013-07-31 21:15:00,73.4,68.3,29.94,SW,225,0.0,0.0,84,0.00,OVC,FEW,0.06,WeatherDisplay:10.37,2013-08-01 02:15:00,
2013-07-31 21:21:00,73.0,67.9,29.94,SW,225,0.0,0.0,84,0.00,OVC,FEW,0.06,WeatherDisplay:10.37,2013-08-01 02:21:00,
2013-07-31 21:27:00,72.9,67.7,29.95,SW,225,0.0,0.0,84,0.00,OVC,FEW,0.06,WeatherDisplay:10.37,2013-08-01 02:27:00,
2013-07-31 21:32:00,72.7,67.6,29.95,SW,225,0.0,0.0,84,0.00,OVC,FEW,0.06,WeatherDisplay:10.37,2013-08-01 02:32:00,
2013-07-31 21:38:00,72.3,67.2,29.95,SW,225,0.0,0.0,84,0.00,OVC,FEW,0.06,WeatherDisplay:10.37,2013-08-01 02:38:00,
2013-07-31 21:43:00,72.1,67.0,29.95,SW,225,0.0,0.0,84,0.00,OVC,FEW,0.06,WeatherDisplay:10.37,2013-08-01 02:43:00,
2013-07-31 21:49:00,71.8,66.7,29.95,SW,225,0.0,0.0,84,0.00,OVC,FEW,0.06,WeatherDisplay:10.37,2013-08-01 02:49:00,
2013-07-31 21:55:00,71.2,66.2,29.95,SW,225,0.0,0.0,84,0.00,OVC,FEW,0.06,WeatherDisplay:10.37,2013-08-01 02:55:00,
2013-07-31 22:00:00,71.1,66.0,29.95,SW,225,0.0,0.0,84,0.00,OVC,FEW,0.06,WeatherDisplay:10.37,2013-08-01 03:00:00,
2013-07-31 22:07:00,70.9,65.8,29.95,SW,225,0.0,0.0,84,0.00,OVC,FEW,0.06,WeatherDisplay:10.37,2013-08-01 03:07:00,
2013-07-31 22:12:00,70.5,65.4,29.95,SW,225,0.0,0.0,84,0.00,OVC,FEW,0.06,WeatherDisplay:10.37,2013-08-01 03:12:00,
2013-07-31 22:18:00,70.3,65.3,29.96,SW,225,0.0,0.0,84,0.00,OVC,FEW,0.06,WeatherDisplay:10.37,2013-08-01 03:18:00,
2013-07-31 22:23:00,70.2,65.1,29.96,SW,225,0.0,0.0,84,0.00,OVC,FEW,0.06,WeatherDisplay:10.37,2013-08-01 03:23:00,
2013-07-31 22:29:00,69.8,64.7,29.96,SW,225,0.0,0.0,84,0.00,OVC,FEW,0.06,WeatherDisplay:10.37,2013-08-01 03:29:00,
2013-07-31 22:35:00,69.6,64.6,29.96,SW,225,0.0,0.0,84,0.00,OVC,FEW,0.06,WeatherDisplay:10.37,2013-08-01 03:35:00,
2013-07-31 22:40:00,69.4,64.4,29.96,SW,225,0.0,0.0,84,0.00,OVC,FEW,0.06,WeatherDisplay:10.37,2013-08-01 03:40:00,
2013-07-31 22:46:00,69.3,64.2,29.96,SW,225,0.0,0.0,84,0.00,OVC,FEW,0.06,WeatherDisplay:10.37,2013-08-01 03:46:00,
2013-07-31 22:51:00,69.3,64.2,29.96,SW,225,0.0,0.0,84,0.00,OVC,FEW,0.06,WeatherDisplay:10.37,2013-08-01 03:51:00,
2013-07-31 22:57:00,69.1,64.0,29.96,SW,225,0.0,0.0,84,0.00,OVC,FEW,0.06,WeatherDisplay:10.37,2013-08-01 03:57:00,
2013-07-31 23:01:00,68.9,63.9,29.96,SW,225,0.0,0.0,84,0.00,OVC,FEW,0.06,WeatherDisplay:10.37,2013-08-01 04:01:00,
2013-07-31 23:02:00,68.9,63.9,29.96,SW,225,0.0,0.0,84,0.00,OVC,FEW,0.06,WeatherDisplay:10.37,2013-08-01 04:02:00,
2013-07-31 23:04:00,68.9,63.9,29.95,SW,225,0.0,0.0,84,0.00,OVC,FEW,0.06,WeatherDisplay:10.37,2013-08-01 04:04:00,
2013-07-31 23:06:00,68.9,63.9,29.95,SW,225,0.0,0.0,84,0.00,OVC,FEW,0.06,WeatherDisplay:10.37,2013-08-01 04:06:00,
2013-07-31 23:11:00,68.7,63.7,29.96,SW,225,0.0,0.0,84,0.00,OVC,FEW,0.06,WeatherDisplay:10.37,2013-08-01 04:11:00,
2013-07-31 23:17:00,68.5,63.5,29.95,SW,225,0.0,0.0,84,0.00,OVC,FEW,0.06,WeatherDisplay:10.37,2013-08-01 04:17:00,
2013-07-31 23:23:00,68.4,63.3,29.96,SW,225,0.0,0.0,84,0.00,OVC,FEW,0.06,WeatherDisplay:10.37,2013-08-01 04:23:00,
2013-07-31 23:28:00,68.2,63.2,29.96,SW,225,0.0,0.0,84,0.00,OVC,FEW,0.06,WeatherDisplay:10.37,2013-08-01 04:28:00,
2013-07-31 23:34:00,68.0,63.0,29.95,SW,225,0.0,0.0,84,0.00,OVC,FEW,0.06,WeatherDisplay:10.37,2013-08-01 04:34:00,
2013-07-31 23:40:00,67.8,62.8,29.96,SW,225,0.0,0.0,84,0.00,OVC,FEW,0.06,WeatherDisplay:10.37,2013-08-01 04:40:00,
2013-07-31 23:45:00,67.8,62.8,29.96,North,0,0.0,0.0,84,0.00,CLR,FEW,0.06,WeatherDisplay:10.37,2013-08-01 04:45:00,
2013-07-31 23:51:00,67.8,62.8,29.96,SW,225,0.0,0.0,84,0.00,OVC,FEW,0.06,WeatherDisplay:10.37,2013-08-01 04:51:00,
2013-07-31 23:56:00,67.6,62.6,29.96,SW,225,0.0,0.0,84,0.00,OVC,FEW,0.06,WeatherDisplay:10.37,2013-08-01 04:56:00,